Location: Alvediston
(51.0078°N, 2.0364°W)
Time: 05:31:05
(UTC+00:00)

STARLINK-1044 - Pass Details

Date: 27 February 2020
Orbit: 549 x 550 km, 53.0° (Epoch: 31 March)

Event Time Altitude Azimuth Distance (km) Brightness Sun altitude
Rises 20:15:08 0° 273° (W) 2,721 8.4 -24.2°
Reaches altitude 10° 20:17:23 10° 277° (W) 1,828 7.3 -24.5°
Enters shadow 20:21:04 59° 322° (NW) 639 4.0 -25.1°
